DW0835 Weather Reports


Display with metric or nautical units.
time (UTC)temp
F
wind
direction
speed
MPH
gust
MPH
rain 1hr
in
rain 24hr
in
rain mn
in
humidity
%
barometer
mb
20180424023030 46 338 0.0 3.0 0.00 0.00 0.00 53 1020.6
20180424021530 46 342 1.0 4.0 0.00 0.00 0.00 56 1020.6
20180424020031 46 342 0.0 5.0 0.00 0.00 0.00 54 1020.5
20180424014529 46 360 1.0 5.0 0.00 0.00 0.00 54 1020.5
20180424013027 46 342 0.0 4.0 0.00 0.00 0.00 54 1020.6
20180424011527 46 331 0.0 7.0 0.00 0.00 0.00 52 1020.6
20180424010029 46 337 0.0 4.0 0.00 0.00 0.00 52 1020.6
20180424004530 46 350 0.0 5.0 0.00 0.00 0.00 54 1020.6
20180424003025 46 339 0.0 5.0 0.00 0.00 0.00 54 1020.6
20180424001525 46 317 0.0 5.0 0.00 0.00 0.00 55 1020.6
20180424000029 46 312 0.0 5.0 0.00 0.00 0.00 54 1020.6
20180423234528 46 327 1.0 7.0 0.00 0.00 0.00 53 1020.6
20180423233024 47 24 0.0 8.0 0.00 0.00 0.00 51 1020.6
20180423231523 48 338 0.0 4.0 0.00 0.00 0.00 49 1020.7
20180423230022 50 316 0.0 5.0 0.00 0.00 0.00 44 1020.9
20180423224525 51 341 1.0 8.0 0.00 0.00 0.00 42 1020.7
20180423223023 52 322 1.0 6.0 0.00 0.00 0.00 41 1020.8
20180423221522 52 333 0.0 6.0 0.00 0.00 0.00 42 1021.0
20180423220020 50 11 1.0 5.0 0.00 0.00 0.00 46 1021.1
20180423214520 50 338 1.0 8.0 0.00 0.00 0.00 50 1021.1
20180423213014 51 344 2.0 6.0 0.00 0.00 0.00 48 1021.2
20180423211518 51 319 0.0 6.0 0.00 0.00 0.00 48 1021.4
20180423210013 51 10 1.0 6.0 0.00 0.00 0.00 47 1021.5
20180423204515 51 32 1.0 7.0 0.00 0.00 0.00 48 1021.4
20180423203011 51 355 0.0 8.0 0.00 0.00 0.00 50 1021.6
20180423201510 51 360 0.0 4.0 0.00 0.00 0.00 50 1021.7
20180423200010 50 327 1.0 7.0 0.00 0.00 0.00 49 1022.0
20180423194507 49 334 1.0 6.0 0.00 0.00 0.00 51 1022.1
20180423193006 49 355 1.0 8.0 0.00 0.00 0.00 53 1022.2
20180423191504 48 342 1.0 6.0 0.00 0.00 0.00 57 1022.3
20180423185959 47 332 1.0 6.0 0.00 0.00 0.00 61 1022.5
20180423184500 47 329 3.0 9.0 0.00 0.00 0.00 61 1022.7
20180423183000 47 330 0.0 5.0 0.00 0.00 0.00 61 1022.9
20180423181457 47 341 0.0 6.0 0.00 0.00 0.00 61 1022.9
20180423175954 47 311 0.0 7.0 0.00 0.00 0.00 61 1023.2
20180423174452 48 325 0.0 4.0 0.00 0.00 0.00 59 1023.1
20180423172954 47 337 1.0 5.0 0.00 0.00 0.00 58 1023.3
20180423171449 47 315 1.0 7.0 0.00 0.00 0.00 59 1023.5
20180423165946 47 302 0.0 7.0 0.00 0.00 0.00 60 1023.7
20180423164445 45 312 1.0 6.0 0.00 0.00 0.00 63 1023.9
20180423162946 45 13 2.0 8.0 0.00 0.00 0.00 64 1024.1
20180423161443 46 326 0.0 5.0 0.00 0.00 0.00 64 1024.2
20180423155941 46 348 1.0 6.0 0.00 0.00 0.00 63 1024.3
20180423154442 46 5 0.0 5.0 0.00 0.00 0.00 65 1024.4
20180423152939 46 5 0.0 6.0 0.00 0.00 0.00 63 1024.4
20180423151440 46 329 0.0 6.0 0.00 0.00 0.00 64 1024.7
20180423145936 46 330 0.0 6.0 0.00 0.00 0.00 64 1024.9
20180423144435 47 313 0.0 3.0 0.00 0.00 0.00 62 1025.3
20180423142936 47 350 0.0 3.0 0.00 0.00 0.00 60 1025.3
20180423141432 45 62 0.0 4.0 0.00 0.00 0.00 65 1025.1
20180423135930 45 338 0.0 5.0 0.00 0.00 0.00 66 1025.2
20180423134428 45 338 0.0 5.0 0.00 0.00 0.00 66 1025.3
20180423132926 44 345 0.0 4.0 0.00 0.00 0.00 69 1025.4
20180423131422 44 350 0.0 4.0 0.00 0.00 0.00 70 1025.6
20180423125920 43 9 0.0 3.0 0.00 0.00 0.00 72 1025.6
20180423124414 42 349 0.0 3.0 0.00 0.00 0.00 73 1025.8
20180423122916 41 350 0.0 2.0 0.00 0.00 0.00 75 1025.6
20180423121411 40 16 0.0 0.0 0.00 0.00 0.00 80 1025.6
20180423115906 38 16 0.0 0.0 0.00 0.00 0.00 82 1025.7
20180423114403 37 16 0.0 0.0 0.00 0.00 0.00 83 1025.7
20180423112902 37 16 0.0 0.0 0.00 0.00 0.00 83 1025.5
20180423111400 37 16 0.0 0.0 0.00 0.00 0.00 83 1025.5
20180423105857 37 16 0.0 0.0 0.00 0.00 0.00 82 1025.5
20180423104356 38 16 0.0 0.0 0.00 0.00 0.00 82 1025.5
20180423102858 38 16 0.0 2.0 0.00 0.00 0.00 82 1025.4
20180423101354 38 30 0.0 1.0 0.00 0.00 0.00 81 1025.2
20180423095851 39 346 0.0 1.0 0.00 0.00 0.00 80 1024.9
20180423094349 39 344 0.0 2.0 0.00 0.00 0.00 79 1025.0
20180423092851 39 349 0.0 3.0 0.00 0.00 0.00 77 1025.2
20180423091349 39 72 0.0 2.0 0.00 0.00 0.00 77 1025.1
20180423085846 39 83 0.0 2.0 0.00 0.00 0.00 76 1025.0
20180423084346 39 83 0.0 0.0 0.00 0.00 0.00 75 1025.0
20180423082845 39 84 0.0 1.0 0.00 0.00 0.00 76 1025.0
20180423081348 39 84 0.0 0.0 0.00 0.00 0.00 75 1025.1
20180423075842 39 84 0.0 1.0 0.00 0.00 0.00 75 1025.3
20180423074341 39 84 0.0 1.0 0.00 0.00 0.00 74 1025.3
20180423072841 39 84 0.0 2.0 0.00 0.00 0.00 73 1025.1
20180423071340 39 84 0.0 0.0 0.00 0.00 0.00 71 1025.1
20180423065838 40 84 0.0 1.0 0.00 0.00 0.00 69 1025.1
20180423064335 40 86 0.0 1.0 0.00 0.00 0.00 67 1025.1
20180423062835 40 144 0.0 0.0 0.00 0.00 0.00 66 1025.2
20180423061331 41 338 2.0 4.0 0.00 0.00 0.00 64 1025.5
20180423055831 41 348 0.0 2.0 0.00 0.00 0.00 63 1025.5
20180423054327 42 348 0.0 4.0 0.00 0.00 0.00 61 1025.5
20180423052829 42 350 0.0 2.0 0.00 0.00 0.00 60 1025.5
20180423051324 41 350 0.0 4.0 0.00 0.00 0.00 59 1025.5
20180423045824 41 346 0.0 0.0 0.00 0.00 0.00 60 1025.5
20180423044323 41 346 0.0 1.0 0.00 0.00 0.00 61 1025.6
20180423042820 41 346 0.0 1.0 0.00 0.00 0.00 62 1025.8
20180423041319 40 346 0.0 1.0 0.00 0.00 0.00 64 1025.9
20180423035818 40 346 0.0 0.0 0.00 0.00 0.00 65 1026.0
20180423034319 40 346 0.0 0.0 0.00 0.00 0.00 65 1026.1
20180423032817 40 346 0.0 0.0 0.00 0.00 0.00 66 1026.3
20180423031317 40 346 0.0 0.0 0.00 0.00 0.00 67 1026.6
20180423025816 41 346 0.0 0.0 0.00 0.00 0.00 67 1026.6